(231890) = 2000 WM39

Discovered at Socorro on 2000-11-20 by LINEAR.

Orbit

Orbit type: Main Belt

Note: WebGL enabled browser required.

epoch2024-03-31.0
epoch JD2460400.5
perihelion date2022-04-27.04080
perihelion JD2459696.54081
argument of perihelion (°)300.13182
ascending node (°)99.46293
inclination (°)14.02120
eccentricity0.2631901
perihelion distance (AU)1.9597282
Tisserand w.r.t. Jupiter3.3
ΔV w.r.t. Earth (km/sec)9.8
semimajor axis (AU)2.6597473
mean anomaly (°)159.95248
mean daily motion (°/day)0.22721840
aphelion distance (AU)3.360
period (years)4.34
P-vector [x]0.74515432
P-vector [y]0.66422456
P-vector [z]0.05958836
Q-vector [x]-0.62260076
Q-vector [y]0.66086284
Q-vector [z]0.41908066
absolute magnitude16.23
phase slope0.15
uncertainty0
referenceE2024-GJ9
observations used447
oppositions15
arc length (days)8544
first opposition used2000
last opposition used2024
residual rms (arc-secs)0.74
perturbers coarse indicatorM-v
perturbers precise indicator003Ek
first observation date used2000-11-20.0
last observation date used2024-04-12.0
computer nameMPCLINUX
JD of orbit computation2456760.890075
perihelion JD uncertainty (days)9.2879E-05
argument of perihelion uncertainty (°)4.0197E-05
ascending node uncertainty (°)2.9087E-05
inclination uncertainty (°)1.0247E-05
eccentricity uncertainty 7.6203E-08
perihelion distance uncertainty (AU)2.0010E-07
Minimum Orbit Intersection Distances (in AU)
for orbit epoch: 2460400.5, reference: E2024-GJ9
Mercury1.64323
Venus1.25367
Earth1.00997
Mars0.54229
Jupiter2.16059
Saturn6.49259
Uranus15.3761
Neptune27.3438

Observations

451 total observations over interval: 2000 11 20.32102 – 2024 03 18.604920
These data are available for download (format description).

Date (UT) J2000 RA J2000 Dec Magn Location Ref
2000 11 20.32102 05 54 32.95 +12 16 06.8 18.1   704 – Lincoln Laboratory ETS, New Mexico MPS 22873
2000 11 20.33560 05 54 32.39 +12 16 12.4 18.3   704 – Lincoln Laboratory ETS, New Mexico MPS 22873
2000 11 20.35022 05 54 31.76 +12 16 16.9 18.5   704 – Lincoln Laboratory ETS, New Mexico MPS 22873
2000 11 20.36476 05 54 31.16 +12 16 23.4 18.2   704 – Lincoln Laboratory ETS, New Mexico MPS 22873
2000 11 27.29508 05 49 24.48 +13 02 56.9 18.0   704 – Lincoln Laboratory ETS, New Mexico MPS 22873
2000 11 27.30957 05 49 23.67 +13 03 02.9 18.3   704 – Lincoln Laboratory ETS, New Mexico MPS 22873
2000 11 27.32406 05 49 22.89 +13 03 10.2 18.2   704 – Lincoln Laboratory ETS, New Mexico MPS 22873
2000 11 27.33857 05 49 22.10 +13 03 16.1 17.9   704 – Lincoln Laboratory ETS, New Mexico MPS 22873
2000 11 27.35306 05 49 21.35 +13 03 22.9 18.1   704 – Lincoln Laboratory ETS, New Mexico MPS 22873
2000 11 27.35931 05 49 21.09 +13 03 25.4 18.7   704 – Lincoln Laboratory ETS, New Mexico MPS 22873
2000 11 27.37785 05 49 20.16 +13 03 33.0 18.6   704 – Lincoln Laboratory ETS, New Mexico MPS 22873
2000 11 27.40035 05 49 18.77 +13 03 43.8 18.7   704 – Lincoln Laboratory ETS, New Mexico MPS 22873
2000 11 27.41820 05 49 17.92 +13 03 51.9 18.3   704 – Lincoln Laboratory ETS, New Mexico MPS 22873
2000 12 21.29428 05 25 05.68 +16 32 44.7 18.7   704 – Lincoln Laboratory ETS, New Mexico MPS 23940
2000 12 21.30956 05 25 04.74 +16 32 53.9 19.3   704 – Lincoln Laboratory ETS, New Mexico MPS 23940
2000 12 21.32612 05 25 03.67 +16 33 01.7 19.4   704 – Lincoln Laboratory ETS, New Mexico MPS 23940
2000 12 21.34148 05 25 02.72 +16 33 11.2 19.6   704 – Lincoln Laboratory ETS, New Mexico MPS 23940
2000 12 22.29491 05 24 04.53 +16 42 22.2 18.8   704 – Lincoln Laboratory ETS, New Mexico MPS 23940
2000 12 22.29518 05 24 04.49 +16 42 23.1 19.2   704 – Lincoln Laboratory ETS, New Mexico MPS 23940
2000 12 22.31072 05 24 03.46 +16 42 32.5 19.1   704 – Lincoln Laboratory ETS, New Mexico MPS 23940
2000 12 22.31233 05 24 03.38 +16 42 33.0 19.6   704 – Lincoln Laboratory ETS, New Mexico MPS 23940
2000 12 22.32624 05 24 02.51 +16 42 41.3 19.2   704 – Lincoln Laboratory ETS, New Mexico MPS 23940
2000 12 22.32775 05 24 02.43 +16 42 40.5 19.4   704 – Lincoln Laboratory ETS, New Mexico MPS 23940
2000 12 22.34174 05 24 01.50 +16 42 50.4 18.9   704 – Lincoln Laboratory ETS, New Mexico MPS 23940
2000 12 22.35728 05 24 00.58 +16 42 58.0 19.3   704 – Lincoln Laboratory ETS, New Mexico MPS 23940
2000 12 23.29535 05 23 04.16 +16 52 01.2 18.9   704 – Lincoln Laboratory ETS, New Mexico MPS 23940
2000 12 23.31166 05 23 03.11 +16 52 10.8 19.4   704 – Lincoln Laboratory ETS, New Mexico MPS 23940
2000 12 23.32727 05 23 02.19 +16 52 20.6 18.6   704 – Lincoln Laboratory ETS, New Mexico MPS 23940
2000 12 23.34435 05 23 01.09 +16 52 30.0 19.4   704 – Lincoln Laboratory ETS, New Mexico MPS 23940
2000 12 23.35962 05 23 00.28 +16 52 38.6 19.6   704 – Lincoln Laboratory ETS, New Mexico MPS 23940
2000 12 30.22564 05 16 37.79 +17 58 56.3 18.8   704 – Lincoln Laboratory ETS, New Mexico MPS 23940
2000 12 30.24064 05 16 37.01 +17 59 04.9 19.4   704 – Lincoln Laboratory ETS, New Mexico MPS 23940
2000 12 30.25574 05 16 36.15 +17 59 14.1 19.3   704 – Lincoln Laboratory ETS, New Mexico MPS 23940
2000 12 30.27076 05 16 35.42 +17 59 21.6 19.0   704 – Lincoln Laboratory ETS, New Mexico MPS 23940
2000 12 30.28565 05 16 34.65 +17 59 30.0 19.8   704 – Lincoln Laboratory ETS, New Mexico MPS 23940
2001 01 03.22009 05 13 27.28 +18 37 06.7 19.7   704 – Lincoln Laboratory ETS, New Mexico MPS 23940
2001 01 03.23616 05 13 26.56 +18 37 16.1 19.7   704 – Lincoln Laboratory ETS, New Mexico MPS 23940
2001 01 03.29195 05 13 23.97 +18 37 47.6 19.8   704 – Lincoln Laboratory ETS, New Mexico MPS 23940
2001 01 20.16006 05 05 46.99 +21 10 12.7 18.8   704 – Lincoln Laboratory ETS, New Mexico MPS 25275
2001 01 20.17481 05 05 46.84 +21 10 19.0 19.8   704 – Lincoln Laboratory ETS, New Mexico MPS 25275
2001 01 20.18957 05 05 46.69 +21 10 25.6 19.6   704 – Lincoln Laboratory ETS, New Mexico MPS 25275
2001 01 20.21910 05 05 46.34 +21 10 42.2 19.5   704 – Lincoln Laboratory ETS, New Mexico MPS 25275
2004 07 22.75323 00 49 59.51 -13 19 24.2 19.8 R E12 – Siding Spring Survey MPS 112670
2004 07 22.76270 00 50 00.09 -13 19 25.3 19.3 R E12 – Siding Spring Survey MPS 112670
2004 07 22.77243 00 50 00.71 -13 19 28.6 19.6 R E12 – Siding Spring Survey MPS 112670
2004 07 22.78189 00 50 01.21 -13 19 32.1 19.9 R E12 – Siding Spring Survey MPS 112670
2004 09 07.34374 01 10 28.41 -19 53 16.2 18.8   704 – Lincoln Laboratory ETS, New Mexico MPS 112670
2004 09 07.35478 01 10 28.20 -19 53 23.1 19.1   704 – Lincoln Laboratory ETS, New Mexico MPS 112670
2004 09 07.36570 01 10 28.01 -19 53 29.6 19.2   704 – Lincoln Laboratory ETS, New Mexico MPS 112670
2004 09 07.37662 01 10 27.85 -19 53 36.9 19.4   704 – Lincoln Laboratory ETS, New Mexico MPS 112670
2004 09 07.38754 01 10 27.63 -19 53 44.0 19.1   704 – Lincoln Laboratory ETS, New Mexico MPS 112670
2004 09 16.76612 01 06 43.72 -21 29 12.3 17.8 R E12 – Siding Spring Survey MPS 112670
2004 09 16.77185 01 06 43.54 -21 29 16.2 18.9 R E12 – Siding Spring Survey MPS 112670
2004 09 16.77752 01 06 43.25 -21 29 19.6 18.7 R E12 – Siding Spring Survey MPS 112670
2004 09 16.78324 01 06 43.17 -21 29 21.7 17.9 R E12 – Siding Spring Survey MPS 112670
2004 09 21.29021 01 04 05.18 -22 10 15.0 18.6   704 – Lincoln Laboratory ETS, New Mexico MPS 114201
2004 09 21.30211 01 04 04.70 -22 10 21.0 18.7   704 – Lincoln Laboratory ETS, New Mexico MPS 114201
2004 09 21.31402 01 04 04.19 -22 10 27.3 19.0   704 – Lincoln Laboratory ETS, New Mexico MPS 114201
2004 09 21.32592 01 04 03.74 -22 10 33.2 18.9   704 – Lincoln Laboratory ETS, New Mexico MPS 114201
2004 09 21.33782 01 04 03.25 -22 10 39.2 19.2   704 – Lincoln Laboratory ETS, New Mexico MPS 114201
2004 10 06.25715 00 52 50.81 -23 41 36.6 18.9   704 – Lincoln Laboratory ETS, New Mexico MPS 115640
2004 10 06.26801 00 52 50.25 -23 41 38.7 18.9   704 – Lincoln Laboratory ETS, New Mexico MPS 115640
2004 10 06.27888 00 52 49.65 -23 41 41.1 19.2   704 – Lincoln Laboratory ETS, New Mexico MPS 115640
2004 10 06.28974 00 52 49.08 -23 41 43.0 19.2   704 – Lincoln Laboratory ETS, New Mexico MPS 115640
2004 10 06.30059 00 52 48.46 -23 41 46.2 18.9   704 – Lincoln Laboratory ETS, New Mexico MPS 115640
2004 10 13.24919 00 47 12.64 -23 54 12.3 18.7   704 – Lincoln Laboratory ETS, New Mexico MPS 116473
2004 10 13.28215 00 47 11.05 -23 54 12.5 19.0   704 – Lincoln Laboratory ETS, New Mexico MPS 116473
2004 10 13.29307 00 47 10.46 -23 54 12.5 18.9   704 – Lincoln Laboratory ETS, New Mexico MPS 116473
2004 11 05.13617 00 34 19.87 -22 06 51.0 19.2 C 704 – Lincoln Laboratory ETS, New Mexico MPS 290113
2004 11 05.14819 00 34 19.63 -22 06 44.4 18.9 C 704 – Lincoln Laboratory ETS, New Mexico MPS 290113
2004 11 05.17222 00 34 19.24 -22 06 30.5 18.9 C 704 – Lincoln Laboratory ETS, New Mexico MPS 290113
2004 11 11.20967 00 33 19.36 -21 05 04.3 19.6   704 – Lincoln Laboratory ETS, New Mexico MPS 119232
2004 11 11.22172 00 33 19.25 -21 04 55.0 19.8   704 – Lincoln Laboratory ETS, New Mexico MPS 119232
2004 11 11.23377 00 33 19.23 -21 04 44.9 19.6   704 – Lincoln Laboratory ETS, New Mexico MPS 119232
2007 05 16.31485 15 27 24.94 -03 22 45.5 21.0 V G96 – Mt. Lemmon Survey MPS 208799
2007 05 16.32140 15 27 24.58 -03 22 45.0 21.1 V G96 – Mt. Lemmon Survey MPS 208799
2007 05 16.32792 15 27 24.22 -03 22 44.2 20.9 V G96 – Mt. Lemmon Survey MPS 208799
2007 05 16.33452 15 27 23.83 -03 22 43.6 21.2 V G96 – Mt. Lemmon Survey MPS 208799
2007 06 18.17335 15 02 40.37 -03 47 52.2 20.8 V 691 – Steward Observatory, Kitt Peak-Spacewatch MPS 211029
2007 06 18.19476 15 02 39.68 -03 47 55.2 21.2 V 691 – Steward Observatory, Kitt Peak-Spacewatch MPS 211029
2007 06 18.21617 15 02 38.97 -03 47 59.4 21.4 V 691 – Steward Observatory, Kitt Peak-Spacewatch MPS 211029
2008 08 26.47751 20 28 13.58 -32 31 02.8 19.7 V E12 – Siding Spring Survey MPS 254391
2008 08 26.48953 20 28 12.97 -32 31 05.3 20.4 V E12 – Siding Spring Survey MPS 254391
2008 08 26.50153 20 28 12.39 -32 31 08.7 19.7 V E12 – Siding Spring Survey MPS 254391
